Time,TemperatureF,DewpointF,PressureIn,WindDirection,WindDirectionDegrees,WindSpeedMPH,WindSpeedGustMPH,Humidity,HourlyPrecipIn,Conditions,Clouds,dailyrainin,SoftwareType,DateUTC
2013-02-02 00:04:00,16.9,11.8,30.35,NW,305,10.0,13.0,80,0.00,,,0.00,Wunderground v.1.15,2013-02-02 05:04:00,
2013-02-02 00:14:00,16.9,11.5,30.36,NW,315,10.0,11.0,79,0.00,,,0.00,Wunderground v.1.15,2013-02-02 05:14:00,
2013-02-02 00:19:00,17.0,11.6,30.35,NW,304,11.0,11.0,79,0.00,,,0.00,Wunderground v.1.15,2013-02-02 05:19:00,
2013-02-02 00:24:00,17.0,11.6,30.36,WNW,297,11.0,11.0,79,0.00,,,0.00,Wunderground v.1.15,2013-02-02 05:24:00,
2013-02-02 00:29:00,17.0,11.6,30.36,WNW,301,10.0,11.0,79,0.00,,,0.00,Wunderground v.1.15,2013-02-02 05:29:00,
2013-02-02 00:34:00,17.0,11.3,30.36,WNW,298,11.0,16.0,78,0.00,,,0.00,Wunderground v.1.15,2013-02-02 05:34:00,
2013-02-02 00:39:00,17.1,11.4,30.36,NW,309,10.0,10.0,78,0.00,,,0.00,Wunderground v.1.15,2013-02-02 05:39:00,
2013-02-02 00:44:00,17.1,11.4,30.35,NW,311,9.0,16.0,78,0.00,,,0.00,Wunderground v.1.15,2013-02-02 05:44:00,
2013-02-02 00:49:00,17.2,11.2,30.35,WNW,294,9.0,9.0,77,0.00,,,0.00,Wunderground v.1.15,2013-02-02 05:49:00,
2013-02-02 00:54:00,17.3,11.0,30.35,NW,305,8.0,16.0,76,0.00,,,0.00,Wunderground v.1.15,2013-02-02 05:54:00,
2013-02-02 01:00:00,17.3,11.0,30.35,WNW,296,7.0,8.0,76,0.00,,,0.00,Wunderground v.1.15,2013-02-02 06:00:00,
2013-02-02 01:09:00,17.3,11.0,30.36,NW,306,6.0,6.0,76,0.00,,,0.00,Wunderground v.1.15,2013-02-02 06:09:00,
2013-02-02 01:14:00,17.3,11.0,30.36,WNW,298,5.0,6.0,76,0.00,,,0.00,Wunderground v.1.15,2013-02-02 06:14:00,
2013-02-02 01:19:00,17.5,11.2,30.36,NW,323,7.0,9.0,76,0.00,,,0.00,Wunderground v.1.15,2013-02-02 06:19:00,
2013-02-02 01:29:00,17.5,11.2,30.36,WNW,294,9.0,11.0,76,0.00,,,0.00,Wunderground v.1.15,2013-02-02 06:29:00,
2013-02-02 01:34:00,17.5,11.5,30.36,NW,315,10.0,11.0,77,0.00,,,0.00,Wunderground v.1.15,2013-02-02 06:34:00,
2013-02-02 01:40:00,17.5,11.5,30.36,WNW,293,10.0,10.0,77,0.00,,,0.00,Wunderground v.1.15,2013-02-02 06:40:00,
2013-02-02 01:49:00,17.4,12.0,30.36,NW,306,8.0,10.0,79,0.00,,,0.00,Wunderground v.1.15,2013-02-02 06:49:00,
2013-02-02 01:59:00,17.5,12.4,30.36,WNW,298,10.0,10.0,80,0.00,,,0.00,Wunderground v.1.15,2013-02-02 06:59:00,
2013-02-02 02:09:00,17.1,11.7,30.36,WNW,288,9.0,10.0,79,0.00,,,0.00,Wunderground v.1.15,2013-02-02 07:09:00,
2013-02-02 02:14:00,16.9,11.5,30.35,WNW,294,9.0,10.0,79,0.00,,,0.00,Wunderground v.1.15,2013-02-02 07:14:00,
2013-02-02 02:19:00,16.6,11.2,30.35,WNW,298,8.0,9.0,79,0.00,,,0.00,Wunderground v.1.15,2013-02-02 07:19:00,
2013-02-02 02:29:00,16.6,11.2,30.35,WNW,302,9.0,11.0,79,0.00,,,0.00,Wunderground v.1.15,2013-02-02 07:29:00,
2013-02-02 02:34:00,16.6,11.2,30.35,WNW,293,9.0,15.0,79,0.00,,,0.00,Wunderground v.1.15,2013-02-02 07:34:00,
2013-02-02 02:39:00,16.8,11.4,30.36,WNW,288,8.0,15.0,79,0.00,,,0.00,Wunderground v.1.15,2013-02-02 07:39:00,
2013-02-02 02:49:00,16.7,11.6,30.36,WNW,295,7.0,7.0,80,0.00,,,0.00,Wunderground v.1.15,2013-02-02 07:49:00,
2013-02-02 02:54:00,16.8,11.7,30.35,WNW,298,7.0,15.0,80,0.00,,,0.00,Wunderground v.1.15,2013-02-02 07:54:00,
2013-02-02 02:59:00,16.8,11.7,30.35,WNW,293,5.0,5.0,80,0.00,,,0.00,Wunderground v.1.15,2013-02-02 07:59:00,
2013-02-02 03:09:00,16.3,11.2,30.35,WSW,238,5.0,7.0,80,0.00,,,0.00,Wunderground v.1.15,2013-02-02 08:09:00,
2013-02-02 03:14:00,16.2,11.4,30.35,WNW,300,5.0,8.0,81,0.00,,,0.00,Wunderground v.1.15,2013-02-02 08:14:00,
2013-02-02 03:20:00,16.1,11.3,30.35,WNW,289,5.0,5.0,81,0.00,,,0.00,Wunderground v.1.15,2013-02-02 08:20:00,
2013-02-02 03:29:00,15.8,11.3,30.34,WNW,288,7.0,7.0,82,0.00,,,0.00,Wunderground v.1.15,2013-02-02 08:29:00,
2013-02-02 03:39:00,15.7,10.9,30.35,WNW,290,6.0,6.0,81,0.00,,,0.00,Wunderground v.1.15,2013-02-02 08:39:00,
2013-02-02 03:44:00,15.7,10.9,30.34,WNW,286,6.0,10.0,81,0.00,,,0.00,Wunderground v.1.15,2013-02-02 08:44:00,
2013-02-02 03:49:00,15.6,10.5,30.35,WNW,302,7.0,14.0,80,0.00,,,0.00,Wunderground v.1.15,2013-02-02 08:49:00,
2013-02-02 03:54:00,15.5,10.1,30.35,WNW,290,7.0,14.0,79,0.00,,,0.00,Wunderground v.1.15,2013-02-02 08:54:00,
2013-02-02 04:00:00,15.5,10.1,30.35,West,281,7.0,7.0,79,0.00,,,0.00,Wunderground v.1.15,2013-02-02 09:00:00,
2013-02-02 04:09:00,15.3,9.4,30.35,WNW,286,7.0,9.0,77,0.00,,,0.00,Wunderground v.1.15,2013-02-02 09:09:00,
2013-02-02 04:19:00,14.9,8.7,30.35,West,279,8.0,8.0,76,0.00,,,0.00,Wunderground v.1.15,2013-02-02 09:19:00,
2013-02-02 04:24:00,15.1,8.9,30.34,WNW,298,10.0,10.0,76,0.00,,,0.00,Wunderground v.1.15,2013-02-02 09:24:00,
2013-02-02 04:29:00,15.1,9.2,30.34,West,281,9.0,9.0,77,0.00,,,0.00,Wunderground v.1.15,2013-02-02 09:29:00,
2013-02-02 04:34:00,15.1,9.5,30.34,WSW,256,7.0,9.0,78,0.00,,,0.00,Wunderground v.1.15,2013-02-02 09:34:00,
2013-02-02 04:39:00,14.9,9.3,30.34,West,261,7.0,7.0,78,0.00,,,0.00,Wunderground v.1.15,2013-02-02 09:39:00,
2013-02-02 04:49:00,14.6,9.0,30.34,West,277,5.0,5.0,78,0.00,,,0.00,Wunderground v.1.15,2013-02-02 09:49:00,
2013-02-02 04:54:00,14.5,8.9,30.34,WSW,257,5.0,7.0,78,0.00,,,0.00,Wunderground v.1.15,2013-02-02 09:54:00,
2013-02-02 05:00:00,14.5,8.9,30.34,WNW,294,5.0,9.0,78,0.00,,,0.00,Wunderground v.1.15,2013-02-02 10:00:00,
2013-02-02 05:09:00,14.6,8.7,30.34,WNW,291,7.0,13.0,77,0.00,,,0.00,Wunderground v.1.15,2013-02-02 10:09:00,
2013-02-02 05:14:00,14.4,8.5,30.34,WSW,243,7.0,13.0,77,0.00,,,0.00,Wunderground v.1.15,2013-02-02 10:14:00,
2013-02-02 05:24:00,14.4,8.5,30.33,WSW,257,7.0,8.0,77,0.00,,,0.00,Wunderground v.1.15,2013-02-02 10:24:00,
2013-02-02 05:29:00,14.3,8.4,30.33,WSW,246,8.0,8.0,77,0.00,,,0.00,Wunderground v.1.15,2013-02-02 10:29:00,
2013-02-02 05:34:00,14.2,8.3,30.33,WSW,246,8.0,8.0,77,0.00,,,0.00,Wunderground v.1.15,2013-02-02 10:34:00,
2013-02-02 05:39:00,14.1,8.2,30.34,WSW,246,7.0,8.0,77,0.00,,,0.00,Wunderground v.1.15,2013-02-02 10:39:00,
2013-02-02 05:44:00,14.1,8.2,30.34,WSW,240,7.0,8.0,77,0.00,,,0.00,Wunderground v.1.15,2013-02-02 10:44:00,
2013-02-02 05:49:00,14.0,8.4,30.33,West,260,6.0,8.0,78,0.00,,,0.00,Wunderground v.1.15,2013-02-02 10:49:00,
2013-02-02 05:54:00,14.0,8.4,30.33,WSW,251,6.0,8.0,78,0.00,,,0.00,Wunderground v.1.15,2013-02-02 10:54:00,
2013-02-02 06:00:00,14.0,8.4,30.33,WSW,256,7.0,7.0,78,0.00,,,0.00,Wunderground v.1.15,2013-02-02 11:00:00,
2013-02-02 06:09:00,14.1,8.5,30.33,WSW,249,7.0,7.0,78,0.00,,,0.00,Wunderground v.1.15,2013-02-02 11:09:00,
2013-02-02 06:14:00,14.1,8.5,30.32,WSW,244,7.0,10.0,78,0.00,,,0.00,Wunderground v.1.15,2013-02-02 11:14:00,
2013-02-02 06:19:00,14.1,8.5,30.33,WNW,295,7.0,8.0,78,0.00,,,0.00,Wunderground v.1.15,2013-02-02 11:19:00,
2013-02-02 06:29:00,14.3,8.7,30.33,WSW,253,8.0,8.0,78,0.00,,,0.00,Wunderground v.1.15,2013-02-02 11:29:00,
2013-02-02 06:34:00,14.4,8.5,30.33,WSW,247,9.0,9.0,77,0.00,,,0.00,Wunderground v.1.15,2013-02-02 11:34:00,
2013-02-02 06:40:00,14.4,8.5,30.33,West,259,8.0,11.0,77,0.00,,,0.00,Wunderground v.1.15,2013-02-02 11:40:00,
2013-02-02 06:49:00,14.5,8.6,30.33,SW,223,8.0,8.0,77,0.00,,,0.00,Wunderground v.1.15,2013-02-02 11:49:00,
2013-02-02 06:54:00,14.6,8.7,30.33,WSW,240,7.0,8.0,77,0.00,,,0.00,Wunderground v.1.15,2013-02-02 11:54:00,
2013-02-02 07:09:00,14.6,8.4,30.33,WSW,252,8.0,8.0,76,0.00,,,0.00,Wunderground v.1.15,2013-02-02 12:09:00,
2013-02-02 07:14:00,14.5,8.3,30.33,WSW,256,8.0,9.0,76,0.00,,,0.00,Wunderground v.1.15,2013-02-02 12:14:00,
2013-02-02 07:19:00,14.5,8.3,30.33,WSW,246,9.0,9.0,76,0.00,,,0.00,Wunderground v.1.15,2013-02-02 12:19:00,
2013-02-02 07:24:00,14.5,8.3,30.33,WSW,250,8.0,9.0,76,0.00,,,0.00,Wunderground v.1.15,2013-02-02 12:24:00,
2013-02-02 07:29:00,14.5,8.3,30.33,WSW,248,7.0,7.0,76,0.00,,,0.00,Wunderground v.1.15,2013-02-02 12:29:00,
2013-02-02 07:34:00,14.5,8.3,30.33,West,260,8.0,8.0,76,0.00,,,0.00,Wunderground v.1.15,2013-02-02 12:34:00,
2013-02-02 07:44:00,14.6,8.4,30.34,West,261,7.0,14.0,76,0.00,,,0.00,Wunderground v.1.15,2013-02-02 12:44:00,
2013-02-02 07:49:00,14.5,8.0,30.34,West,272,8.0,8.0,75,0.00,,,0.00,Wunderground v.1.15,2013-02-02 12:49:00,
2013-02-02 07:54:00,14.5,8.0,30.34,WSW,253,8.0,13.0,75,0.00,,,0.00,Wunderground v.1.15,2013-02-02 12:54:00,
2013-02-02 08:00:00,14.5,8.0,30.34,West,278,8.0,9.0,75,0.00,,,0.00,Wunderground v.1.15,2013-02-02 13:00:00,
2013-02-02 08:09:00,14.5,7.7,30.34,WSW,246,9.0,9.0,74,0.00,,,0.00,Wunderground v.1.15,2013-02-02 13:09:00,
2013-02-02 08:14:00,14.6,7.8,30.34,WNW,296,9.0,11.0,74,0.00,,,0.00,Wunderground v.1.15,2013-02-02 13:14:00,
2013-02-02 08:19:00,14.5,7.4,30.34,West,271,9.0,9.0,73,0.00,,,0.00,Wunderground v.1.15,2013-02-02 13:19:00,
2013-02-02 08:25:00,14.5,7.7,30.33,WSW,250,10.0,10.0,74,0.00,,,0.00,Wunderground v.1.15,2013-02-02 13:25:00,
2013-02-02 08:34:00,14.6,7.8,30.33,WSW,250,9.0,11.0,74,0.00,,,0.00,Wunderground v.1.15,2013-02-02 13:34:00,
2013-02-02 08:39:00,14.6,7.8,30.33,WSW,251,8.0,8.0,74,0.00,,,0.00,Wunderground v.1.15,2013-02-02 13:39:00,
2013-02-02 08:49:00,14.7,7.6,30.33,WSW,244,9.0,10.0,73,0.00,,,0.00,Wunderground v.1.15,2013-02-02 13:49:00,
2013-02-02 08:54:00,14.8,7.7,30.33,West,270,10.0,10.0,73,0.00,,,0.00,Wunderground v.1.15,2013-02-02 13:54:00,
2013-02-02 09:00:00,14.9,8.1,30.32,West,262,8.0,10.0,74,0.00,,,0.00,Wunderground v.1.15,2013-02-02 14:00:00,
2013-02-02 09:09:00,15.0,7.9,30.32,WSW,256,10.0,10.0,73,0.00,,,0.00,Wunderground v.1.15,2013-02-02 14:09:00,
2013-02-02 09:15:00,15.1,8.0,30.32,West,261,9.0,10.0,73,0.00,,,0.00,Wunderground v.1.15,2013-02-02 14:15:00,
2013-02-02 09:24:00,15.3,8.2,30.32,WSW,250,9.0,11.0,73,0.00,,,0.00,Wunderground v.1.15,2013-02-02 14:24:00,
2013-02-02 09:29:00,15.3,8.2,30.32,WSW,250,8.0,8.0,73,0.00,,,0.00,Wunderground v.1.15,2013-02-02 14:29:00,
2013-02-02 09:34:00,15.5,8.7,30.32,WSW,256,7.0,8.0,74,0.00,,,0.00,Wunderground v.1.15,2013-02-02 14:34:00,
2013-02-02 09:39:00,15.6,8.5,30.31,WSW,255,7.0,8.0,73,0.00,,,0.00,Wunderground v.1.15,2013-02-02 14:39:00,
2013-02-02 09:44:00,15.7,8.6,30.31,WSW,250,8.0,8.0,73,0.00,,,0.00,Wunderground v.1.15,2013-02-02 14:44:00,
2013-02-02 09:49:00,15.6,8.2,30.31,WSW,246,9.0,9.0,72,0.00,,,0.00,Wunderground v.1.15,2013-02-02 14:49:00,
2013-02-02 10:00:00,15.8,8.7,30.31,WSW,254,9.0,9.0,73,0.00,,,0.00,Wunderground v.1.15,2013-02-02 15:00:00,
2013-02-02 10:09:00,16.0,8.6,30.30,West,263,10.0,10.0,72,0.00,,,0.00,Wunderground v.1.15,2013-02-02 15:09:00,
2013-02-02 10:14:00,16.3,8.9,30.30,West,269,8.0,13.0,72,0.00,,,0.00,Wunderground v.1.15,2013-02-02 15:14:00,
2013-02-02 10:19:00,16.4,8.6,30.30,West,265,8.0,8.0,71,0.00,,,0.00,Wunderground v.1.15,2013-02-02 15:19:00,
2013-02-02 10:29:00,16.6,8.8,30.30,WSW,256,9.0,11.0,71,0.00,,,0.00,Wunderground v.1.15,2013-02-02 15:29:00,
2013-02-02 10:34:00,16.6,8.5,30.29,WNW,292,8.0,11.0,70,0.00,,,0.00,Wunderground v.1.15,2013-02-02 15:34:00,
2013-02-02 10:39:00,16.6,8.5,30.29,WSW,248,8.0,9.0,70,0.00,,,0.00,Wunderground v.1.15,2013-02-02 15:39:00,
2013-02-02 10:49:00,16.9,8.8,30.29,WSW,249,8.0,10.0,70,0.00,,,0.00,Wunderground v.1.15,2013-02-02 15:49:00,
2013-02-02 10:54:00,16.9,8.8,30.29,WSW,243,7.0,10.0,70,0.00,,,0.00,Wunderground v.1.15,2013-02-02 15:54:00,
2013-02-02 10:59:00,16.8,8.7,30.29,WSW,246,8.0,8.0,70,0.00,,,0.00,Wunderground v.1.15,2013-02-02 15:59:00,
2013-02-02 11:09:00,16.9,9.1,30.29,WSW,238,7.0,7.0,71,0.00,,,0.00,Wunderground v.1.15,2013-02-02 16:09:00,
2013-02-02 11:15:00,17.1,9.6,30.29,WSW,240,6.0,7.0,72,0.00,,,0.00,Wunderground v.1.15,2013-02-02 16:15:00,
2013-02-02 11:24:00,16.8,9.3,30.28,WSW,247,7.0,13.0,72,0.00,,,0.00,Wunderground v.1.15,2013-02-02 16:24:00,
2013-02-02 11:29:00,16.8,9.0,30.28,WSW,242,8.0,8.0,71,0.00,,,0.00,Wunderground v.1.15,2013-02-02 16:29:00,
2013-02-02 11:34:00,16.7,9.8,30.28,West,261,9.0,13.0,74,0.00,,,0.00,Wunderground v.1.15,2013-02-02 16:34:00,
2013-02-02 11:44:00,16.5,10.0,30.27,WSW,238,10.0,10.0,75,0.00,,,0.00,Wunderground v.1.15,2013-02-02 16:44:00,
2013-02-02 11:49:00,16.6,9.8,30.27,WSW,251,9.0,9.0,74,0.00,,,0.00,Wunderground v.1.15,2013-02-02 16:49:00,
2013-02-02 11:54:00,16.7,9.8,30.27,West,265,9.0,10.0,74,0.00,,,0.00,Wunderground v.1.15,2013-02-02 16:54:00,
2013-02-02 12:00:00,16.7,10.1,30.27,West,281,9.0,11.0,75,0.00,,,0.00,Wunderground v.1.15,2013-02-02 17:00:00,
2013-02-02 12:09:00,17.0,10.7,30.27,West,265,7.0,10.0,76,0.00,,,0.00,Wunderground v.1.15,2013-02-02 17:09:00,
2013-02-02 12:19:00,16.6,10.3,30.26,West,274,9.0,9.0,76,0.00,,,0.00,Wunderground v.1.15,2013-02-02 17:19:00,
2013-02-02 12:24:00,16.7,11.0,30.26,WSW,257,9.0,9.0,78,0.00,,,0.00,Wunderground v.1.15,2013-02-02 17:24:00,
2013-02-02 12:29:00,16.7,11.3,30.25,WSW,244,8.0,8.0,79,0.00,,,0.00,Wunderground v.1.15,2013-02-02 17:29:00,
2013-02-02 12:34:00,16.8,11.7,30.25,WSW,237,7.0,8.0,80,0.00,,,0.00,Wunderground v.1.15,2013-02-02 17:34:00,
2013-02-02 12:39:00,17.0,11.9,30.25,WSW,248,6.0,6.0,80,0.00,,,0.00,Wunderground v.1.15,2013-02-02 17:39:00,
2013-02-02 12:49:00,16.8,11.4,30.25,SW,234,7.0,7.0,79,0.00,,,0.00,Wunderground v.1.15,2013-02-02 17:49:00,
2013-02-02 12:54:00,17.0,11.9,30.25,West,259,7.0,8.0,80,0.00,,,0.00,Wunderground v.1.15,2013-02-02 17:54:00,
2013-02-02 13:00:00,17.0,12.2,30.24,South,175,7.0,10.0,81,0.00,,,0.00,Wunderground v.1.15,2013-02-02 18:00:00,
2013-02-02 13:09:00,17.1,12.6,30.23,WSW,252,7.0,10.0,82,0.00,,,0.00,Wunderground v.1.15,2013-02-02 18:09:00,
2013-02-02 13:14:00,17.1,12.8,30.23,SSW,203,6.0,10.0,83,0.00,,,0.00,Wunderground v.1.15,2013-02-02 18:14:00,
2013-02-02 13:24:00,17.2,12.6,30.23,WSW,252,4.0,12.0,82,0.00,,,0.00,Wunderground v.1.15,2013-02-02 18:24:00,
2013-02-02 13:29:00,17.3,12.5,30.22,WSW,242,5.0,6.0,81,0.00,,,0.00,Wunderground v.1.15,2013-02-02 18:29:00,
2013-02-02 13:34:00,17.5,12.4,30.22,WSW,254,5.0,7.0,80,0.00,,,0.00,Wunderground v.1.15,2013-02-02 18:34:00,
2013-02-02 13:39:00,17.7,12.3,30.22,WSW,255,5.0,9.0,79,0.00,,,0.00,Wunderground v.1.15,2013-02-02 18:39:00,
2013-02-02 13:44:00,17.7,12.0,30.22,WSW,238,5.0,9.0,78,0.00,,,0.00,Wunderground v.1.15,2013-02-02 18:44:00,
2013-02-02 13:49:00,18.0,12.3,30.22,WSW,244,4.0,4.0,78,0.00,,,0.00,Wunderground v.1.15,2013-02-02 18:49:00,
2013-02-02 13:59:00,18.3,12.9,30.21,SW,215,3.0,3.0,79,0.00,,,0.00,Wunderground v.1.15,2013-02-02 18:59:00,
2013-02-02 14:09:00,18.0,12.3,30.20,WSW,239,3.0,3.0,78,0.00,,,0.00,Wunderground v.1.15,2013-02-02 19:09:00,
2013-02-02 14:14:00,18.2,13.1,30.20,SSW,209,3.0,3.0,80,0.00,,,0.00,Wunderground v.1.15,2013-02-02 19:14:00,
2013-02-02 14:19:00,18.4,13.3,30.20,WSW,252,2.0,9.0,80,0.00,,,0.00,Wunderground v.1.15,2013-02-02 19:19:00,
2013-02-02 14:24:00,18.4,13.0,30.20,SW,236,3.0,9.0,79,0.00,,,0.00,Wunderground v.1.15,2013-02-02 19:24:00,
2013-02-02 14:34:00,18.8,13.1,30.20,WSW,252,4.0,6.0,78,0.00,,,0.00,Wunderground v.1.15,2013-02-02 19:34:00,
2013-02-02 14:39:00,18.8,13.1,30.20,SW,234,5.0,5.0,78,0.00,,,0.00,Wunderground v.1.15,2013-02-02 19:39:00,
2013-02-02 14:49:00,18.6,13.2,30.19,WSW,250,6.0,6.0,79,0.00,,,0.00,Wunderground v.1.15,2013-02-02 19:49:00,
2013-02-02 14:54:00,18.7,13.3,30.19,WSW,246,6.0,6.0,79,0.00,,,0.00,Wunderground v.1.15,2013-02-02 19:54:00,
2013-02-02 14:59:00,18.7,13.6,30.19,SW,233,4.0,4.0,80,0.00,,,0.00,Wunderground v.1.15,2013-02-02 19:59:00,
2013-02-02 15:09:00,18.6,14.0,30.19,WSW,239,3.0,4.0,82,0.00,,,0.00,Wunderground v.1.15,2013-02-02 20:09:00,
2013-02-02 15:19:00,19.1,13.9,30.19,WSW,252,4.0,4.0,80,0.00,,,0.00,Wunderground v.1.15,2013-02-02 20:19:00,
2013-02-02 15:24:00,19.3,13.9,30.19,WSW,246,4.0,9.0,79,0.00,,,0.00,Wunderground v.1.15,2013-02-02 20:24:00,
2013-02-02 15:29:00,19.1,13.9,30.19,WSW,257,5.0,8.0,80,0.00,,,0.00,Wunderground v.1.15,2013-02-02 20:29:00,
2013-02-02 15:39:00,19.2,14.6,30.19,WNW,282,3.0,3.0,82,0.00,,,0.00,Wunderground v.1.15,2013-02-02 20:39:00,
2013-02-02 15:44:00,19.3,14.4,30.18,WSW,250,3.0,4.0,81,0.00,,,0.00,Wunderground v.1.15,2013-02-02 20:44:00,
2013-02-02 15:49:00,19.3,14.7,30.18,WSW,252,4.0,4.0,82,0.00,,,0.00,Wunderground v.1.15,2013-02-02 20:49:00,
2013-02-02 15:54:00,19.3,14.4,30.18,West,262,4.0,9.0,81,0.00,,,0.00,Wunderground v.1.15,2013-02-02 20:54:00,
2013-02-02 16:00:00,19.5,14.6,30.18,WSW,248,5.0,6.0,81,0.00,,,0.00,Wunderground v.1.15,2013-02-02 21:00:00,
2013-02-02 16:09:00,19.4,13.9,30.18,WSW,252,8.0,8.0,79,0.00,,,0.00,Wunderground v.1.15,2013-02-02 21:09:00,
2013-02-02 16:14:00,19.5,14.6,30.18,WNW,289,7.0,8.0,81,0.00,,,0.00,Wunderground v.1.15,2013-02-02 21:14:00,
2013-02-02 16:19:00,19.4,14.5,30.17,WSW,251,6.0,6.0,81,0.00,,,0.00,Wunderground v.1.15,2013-02-02 21:19:00,
2013-02-02 16:24:00,19.4,14.8,30.17,WSW,250,5.0,6.0,82,0.00,,,0.00,Wunderground v.1.15,2013-02-02 21:24:00,
2013-02-02 16:29:00,19.4,15.1,30.17,WSW,242,3.0,3.0,83,0.00,,,0.00,Wunderground v.1.15,2013-02-02 21:29:00,
2013-02-02 16:39:00,19.3,15.0,30.18,WSW,247,4.0,7.0,83,0.00,,,0.00,Wunderground v.1.15,2013-02-02 21:39:00,
2013-02-02 16:44:00,19.3,15.3,30.18,WSW,240,5.0,7.0,84,0.00,,,0.00,Wunderground v.1.15,2013-02-02 21:44:00,
2013-02-02 16:49:00,19.2,15.4,30.18,WSW,258,5.0,5.0,85,0.00,,,0.00,Wunderground v.1.15,2013-02-02 21:49:00,
2013-02-02 16:54:00,19.2,15.4,30.18,WSW,248,4.0,5.0,85,0.00,,,0.00,Wunderground v.1.15,2013-02-02 21:54:00,
2013-02-02 17:00:00,19.2,15.7,30.18,WSW,246,3.0,6.0,86,0.00,,,0.00,Wunderground v.1.15,2013-02-02 22:00:00,
2013-02-02 17:09:00,19.1,15.6,30.18,West,261,4.0,6.0,86,0.00,,,0.00,Wunderground v.1.15,2013-02-02 22:09:00,
2013-02-02 17:14:00,19.1,15.6,30.18,WSW,254,5.0,6.0,86,0.00,,,0.00,Wunderground v.1.15,2013-02-02 22:14:00,
2013-02-02 17:19:00,19.0,15.8,30.18,West,261,5.0,7.0,87,0.00,,,0.00,Wunderground v.1.15,2013-02-02 22:19:00,
2013-02-02 17:29:00,18.8,15.8,30.18,SW,225,5.0,5.0,88,0.00,,,0.00,Wunderground v.1.15,2013-02-02 22:29:00,
2013-02-02 17:34:00,18.7,15.7,30.18,WSW,252,4.0,5.0,88,0.00,,,0.00,Wunderground v.1.15,2013-02-02 22:34:00,
2013-02-02 17:39:00,18.6,15.6,30.18,West,268,4.0,5.0,88,0.00,,,0.00,Wunderground v.1.15,2013-02-02 22:39:00,
2013-02-02 17:44:00,18.6,15.6,30.18,WSW,253,5.0,6.0,88,0.00,,,0.00,Wunderground v.1.15,2013-02-02 22:44:00,
2013-02-02 17:49:00,18.6,15.9,30.18,WSW,240,5.0,5.0,89,0.00,,,0.00,Wunderground v.1.15,2013-02-02 22:49:00,
2013-02-02 17:59:00,18.6,15.9,30.18,SW,236,4.0,4.0,89,0.00,,,0.00,Wunderground v.1.15,2013-02-02 22:59:00,
2013-02-02 18:09:00,18.6,16.2,30.18,WSW,246,3.0,3.0,90,0.00,,,0.00,Wunderground v.1.15,2013-02-02 23:09:00,
2013-02-02 18:14:00,18.6,16.2,30.18,WSW,242,4.0,4.0,90,0.00,,,0.00,Wunderground v.1.15,2013-02-02 23:14:00,
2013-02-02 18:19:00,18.7,16.3,30.18,WSW,244,4.0,8.0,90,0.00,,,0.00,Wunderground v.1.15,2013-02-02 23:19:00,
2013-02-02 18:24:00,18.8,16.4,30.18,WSW,244,4.0,8.0,90,0.00,,,0.00,Wunderground v.1.15,2013-02-02 23:24:00,
2013-02-02 18:34:00,18.8,16.4,30.18,SW,236,4.0,4.0,90,0.00,,,0.00,Wunderground v.1.15,2013-02-02 23:34:00,
2013-02-02 18:39:00,18.8,16.4,30.18,WSW,244,4.0,12.0,90,0.00,,,0.00,Wunderground v.1.15,2013-02-02 23:39:00,
2013-02-02 18:44:00,18.7,16.3,30.18,WSW,250,4.0,12.0,90,0.00,,,0.00,Wunderground v.1.15,2013-02-02 23:44:00,
2013-02-02 18:49:00,18.8,16.4,30.18,WSW,244,5.0,12.0,90,0.00,,,0.00,Wunderground v.1.15,2013-02-02 23:49:00,
2013-02-02 18:54:00,18.9,16.5,30.18,SW,236,6.0,12.0,90,0.00,,,0.00,Wunderground v.1.15,2013-02-02 23:54:00,
2013-02-02 19:04:00,19.0,16.6,30.18,WSW,246,5.0,6.0,90,0.00,,,0.00,Wunderground v.1.15,2013-02-03 00:04:00,
2013-02-02 19:09:00,19.1,16.7,30.18,WSW,244,5.0,5.0,90,0.00,,,0.00,Wunderground v.1.15,2013-02-03 00:09:00,
2013-02-02 19:14:00,19.1,16.7,30.18,SW,215,5.0,5.0,90,0.00,,,0.00,Wunderground v.1.15,2013-02-03 00:14:00,
2013-02-02 19:19:00,19.1,16.4,30.18,WSW,239,6.0,6.0,89,0.00,,,0.00,Wunderground v.1.15,2013-02-03 00:19:00,
2013-02-02 19:24:00,19.1,16.4,30.18,WSW,243,6.0,6.0,89,0.00,,,0.00,Wunderground v.1.15,2013-02-03 00:24:00,
2013-02-02 19:29:00,19.1,16.4,30.18,WSW,257,6.0,6.0,89,0.00,,,0.00,Wunderground v.1.15,2013-02-03 00:29:00,
2013-02-02 19:34:00,19.1,16.1,30.18,WSW,245,5.0,9.0,88,0.00,,,0.00,Wunderground v.1.15,2013-02-03 00:34:00,
2013-02-02 19:44:00,19.1,16.1,30.18,WSW,247,4.0,9.0,88,0.00,,,0.00,Wunderground v.1.15,2013-02-03 00:44:00,
2013-02-02 19:49:00,19.2,16.2,30.18,WSW,240,4.0,9.0,88,0.00,,,0.00,Wunderground v.1.15,2013-02-03 00:49:00,
2013-02-02 19:54:00,19.1,16.1,30.19,SW,236,5.0,9.0,88,0.00,,,0.00,Wunderground v.1.15,2013-02-03 00:54:00,
2013-02-02 20:00:00,19.1,16.1,30.19,WSW,244,5.0,5.0,88,0.00,,,0.00,Wunderground v.1.15,2013-02-03 01:00:00,
2013-02-02 20:09:00,19.1,16.1,30.19,WSW,256,4.0,7.0,88,0.00,,,0.00,Wunderground v.1.15,2013-02-03 01:09:00,
2013-02-02 20:19:00,19.1,16.1,30.19,WSW,240,5.0,5.0,88,0.00,,,0.00,Wunderground v.1.15,2013-02-03 01:19:00,
2013-02-02 20:24:00,19.2,16.2,30.19,WSW,242,5.0,5.0,88,0.00,,,0.00,Wunderground v.1.15,2013-02-03 01:24:00,
2013-02-02 20:29:00,19.1,16.1,30.18,WSW,246,4.0,4.0,88,0.00,,,0.00,Wunderground v.1.15,2013-02-03 01:29:00,
2013-02-02 20:34:00,19.1,16.1,30.18,WSW,240,3.0,4.0,88,0.00,,,0.00,Wunderground v.1.15,2013-02-03 01:34:00,
2013-02-02 20:39:00,19.1,16.1,30.18,WSW,245,4.0,4.0,88,0.00,,,0.00,Wunderground v.1.15,2013-02-03 01:39:00,
2013-02-02 20:49:00,19.1,16.1,30.18,SW,236,5.0,5.0,88,0.00,,,0.00,Wunderground v.1.15,2013-02-03 01:49:00,
2013-02-02 20:54:00,19.1,16.1,30.18,SW,232,4.0,5.0,88,0.00,,,0.00,Wunderground v.1.15,2013-02-03 01:54:00,
2013-02-02 20:59:00,19.1,16.1,30.18,West,259,4.0,7.0,88,0.00,,,0.00,Wunderground v.1.15,2013-02-03 01:59:00,
2013-02-02 21:09:00,19.1,16.1,30.18,WSW,245,4.0,4.0,88,0.00,,,0.00,Wunderground v.1.15,2013-02-03 02:09:00,
2013-02-02 21:14:00,19.1,15.9,30.18,WSW,246,3.0,4.0,87,0.00,,,0.00,Wunderground v.1.15,2013-02-03 02:14:00,
2013-02-02 21:24:00,18.9,15.9,30.18,WSW,244,3.0,3.0,88,0.00,,,0.00,Wunderground v.1.15,2013-02-03 02:24:00,
2013-02-02 21:29:00,18.9,16.2,30.18,WSW,244,3.0,3.0,89,0.00,,,0.00,Wunderground v.1.15,2013-02-03 02:29:00,
2013-02-02 21:34:00,18.8,16.1,30.18,WSW,242,3.0,5.0,89,0.00,,,0.00,Wunderground v.1.15,2013-02-03 02:34:00,
2013-02-02 21:39:00,18.8,16.1,30.18,WSW,243,3.0,3.0,89,0.00,,,0.00,Wunderground v.1.15,2013-02-03 02:39:00,
2013-02-02 21:44:00,18.8,16.1,30.18,WSW,242,3.0,10.0,89,0.00,,,0.00,Wunderground v.1.15,2013-02-03 02:44:00,
2013-02-02 21:49:00,18.7,16.0,30.18,SW,224,2.0,10.0,89,0.00,,,0.00,Wunderground v.1.15,2013-02-03 02:49:00,
2013-02-02 21:59:00,18.6,16.2,30.18,SW,234,3.0,3.0,90,0.00,,,0.00,Wunderground v.1.15,2013-02-03 02:59:00,
2013-02-02 22:09:00,18.4,16.0,30.17,WSW,241,3.0,3.0,90,0.00,,,0.00,Wunderground v.1.15,2013-02-03 03:09:00,
2013-02-02 22:14:00,18.3,16.1,30.17,WSW,238,3.0,5.0,91,0.00,,,0.00,Wunderground v.1.15,2013-02-03 03:14:00,
2013-02-02 22:19:00,18.3,16.1,30.17,WSW,239,3.0,3.0,91,0.00,,,0.00,Wunderground v.1.15,2013-02-03 03:19:00,
2013-02-02 22:29:00,18.1,15.9,30.17,SSW,204,5.0,5.0,91,0.00,,,0.00,Wunderground v.1.15,2013-02-03 03:29:00,
2013-02-02 22:34:00,17.9,15.5,30.17,SW,217,5.0,5.0,90,0.00,,,0.00,Wunderground v.1.15,2013-02-03 03:34:00,
2013-02-02 22:44:00,17.5,15.1,30.17,SW,235,2.0,3.0,90,0.00,,,0.00,Wunderground v.1.15,2013-02-03 03:44:00,
2013-02-02 22:49:00,17.0,14.6,30.17,SW,235,1.0,1.0,90,0.00,,,0.00,Wunderground v.1.15,2013-02-03 03:49:00,
2013-02-02 22:54:00,16.3,13.9,30.17,SW,235,0.0,1.0,90,0.00,,,0.00,Wunderground v.1.15,2013-02-03 03:54:00,
2013-02-02 22:59:00,15.9,13.5,30.16,SW,235,0.0,1.0,90,0.00,,,0.00,Wunderground v.1.15,2013-02-03 03:59:00,
2013-02-02 23:09:00,15.8,13.6,30.16,SW,234,0.0,0.0,91,0.00,,,0.00,Wunderground v.1.15,2013-02-03 04:09:00,
2013-02-02 23:14:00,15.6,13.4,30.16,SW,234,0.0,0.0,91,0.00,,,0.00,Wunderground v.1.15,2013-02-03 04:14:00,
2013-02-02 23:19:00,15.5,13.3,30.16,SW,234,0.0,0.0,91,0.00,,,0.00,Wunderground v.1.15,2013-02-03 04:19:00,
2013-02-02 23:29:00,15.1,12.7,30.16,SW,234,0.0,0.0,90,0.00,,,0.00,Wunderground v.1.15,2013-02-03 04:29:00,
2013-02-02 23:34:00,14.8,12.4,30.16,SW,234,0.0,0.0,90,0.00,,,0.00,Wunderground v.1.15,2013-02-03 04:34:00,
2013-02-02 23:44:00,14.2,11.8,30.16,SW,234,0.0,0.0,90,0.00,,,0.00,Wunderground v.1.15,2013-02-03 04:44:00,
2013-02-02 23:49:00,13.9,11.5,30.15,SW,234,0.0,0.0,90,0.00,,,0.00,Wunderground v.1.15,2013-02-03 04:49:00,
2013-02-02 23:54:00,13.8,11.7,30.15,SW,234,0.0,0.0,91,0.00,,,0.00,Wunderground v.1.15,2013-02-03 04:54:00,
2013-02-02 23:59:00,13.7,11.6,30.15,SW,234,0.0,1.0,91,0.00,,,0.00,Wunderground v.1.15,2013-02-03 04:59:00,